Home   Weather   Braunau am Inn   Past weeks

Flag for Austria Past Weather in Braunau am Inn, Upper Austria, Austria — Yesterday and Last 2 Weeks

Now
69 °F

Overcast.


Feels Like: 69 °F
Forecast: 60 / 80 °F
Wind: N/A

Location: Salzburg-Flughafen

Current Time: Jun 25, 2017 at 9:09:56 am

Latest Report: Jun 25, 2017 at 8:00 am


Visibility: 17 mi

Pressure: 29.95 "Hg

Humidity: 78%

Dew Point: 62 °F

Location of Braunau am InnLocation

Past Weather in Braunau am Inn — Graph

°F

Braunau am Inn Temperature Yesterday

Maximum temperature yesterday: 82 °F (at 3:00 pm)
Minimum temperature yesterday: 65 °F (at 6:00 am)
Average temperature yesterday: 75 °F

High & Low Weather Summary for the Past Weeks

 TemperatureHumidityPressure
High90 °F (Jun 22, 5:00 pm)92% (Jun 14, 6:00 am)30.30 "Hg (Jun 14, 6:00 am)
Low51 °F (Jun 19, 5:00 am)23% (Jun 11, 5:00 pm)29.85 "Hg (Jun 22, 7:00 pm)
Average71 °F59%30.04 "Hg
* Reported Jun 10 7:00 am — Jun 25 7:00 am, Braunau am Inn. Weather by CustomWeather, © 2017

Note: Actual official high and low records may vary slightly from our data, if they occured in-between our weather recording intervals... More about our weather records

Advertising

Braunau am Inn Weather History for the Previous 24 Hours

Scroll right to see more
 ConditionsComfort  
Time TempWeatherWind HumidityBarometerVisibility
7:00 am
Sun, Jun 25
65 °FOvercast.N/A88%29.96 "Hg9 mi
6:00 am63 °FOvercast.N/A86%29.96 "Hg9 mi
5:00 am65 °FPassing clouds.N/A83%29.96 "Hg6 mi
4:00 am68 °FPassing clouds.N/A75%29.95 "Hg19 mi
3:00 am67 °FPassing clouds.N/A80%29.96 "Hg14 mi
2:00 am69 °FPassing clouds.N/A77%29.96 "Hg14 mi
1:00 am72 °FOvercast.5 mph70%29.97 "Hg19 mi
12:00 am73 °FPassing clouds.N/A69%29.97 "Hg13 mi
11:00 pm
Sat, Jun 24
72 °FPassing clouds.N/A69%29.96 "Hg17 mi
10:00 pm76 °FOvercast.N/A60%29.95 "Hg17 mi
9:00 pm78 °FOvercast.N/A57%29.92 "Hg18 mi
8:00 pm80 °FPartly sunny.6 mph54%29.90 "Hg16 mi
7:00 pm81 °FPartly sunny.6 mph52%29.91 "Hg14 mi
6:00 pm82 °FPartly sunny.7 mph50%29.91 "Hg16 mi
5:00 pm81 °FPartly sunny.7 mph52%29.92 "Hg14 mi
4:00 pm82 °FPartly sunny.3 mph53%29.93 "Hg25 mi
3:00 pm82 °FScattered clouds.5 mph50%29.94 "Hg14 mi
2:00 pm81 °FPassing clouds.3 mph48%29.96 "Hg13 mi
1:00 pm80 °FPassing clouds.N/A48%29.98 "Hg14 mi
12:00 pm79 °FPassing clouds.3 mph51%30.00 "Hg17 mi
11:00 am77 °FPassing clouds.N/A52%30.01 "Hg7 mi
10:00 am75 °FScattered clouds.N/A58%30.03 "Hg16 mi
9:00 am73 °FOvercast.N/A55%30.04 "Hg17 mi
Weather by CustomWeather, © 2017

See weather overviewHow to use our weather pages